Regional Weather Roundup
Issued by NWS

Home | Current Version | Previous Version | Graphics & Text | Print | Product List | Glossary On
Versions: 1 2 3 4 5 6 7 8 9 10 11 12 13 14 15 16 17 18 19 20 21 22 23 24 25 26 27 28 29 30 31 32 33 34 35 36 37 38 39 40 41 42 43 44 45 46 47 48 49 50
000
ASUS45 KABQ 271010
RWRNM
NEW MEXICO REGIONAL WEATHER ROUNDUP
NATIONAL WEATHER SERVICE ALBUQUERQUE NM
300 AM MST MON FEB 27 2017

NOTE: "FAIR" MEANS FEW OR NO CLOUDS BELOW 12,000 FEET AGL WITH NO
       SIGNIFICANT WEATHER OR OBSTRUCTIONS TO VISION.

      THIS PRODUCT IS RELEASED AS TWO VERSIONS.  ONE VERSION NEAR
      THE TOP OF THE HOUR CONTAINING PRELIMINARY DATA FROM ALBUQUERQUE
      AND OTHER STATIONS.  A FINAL VERSION WITH ADDITIONAL DATA IS
      ISSUED ABOUT 10 MINUTES AFTER THE HOUR.

NMZ501-503-504-510>518-271100-
NORTHWEST PLATEAU/NORTHCENTRAL MOUNTAINS

CITY           SKY/WX    TMP DP  RH WIND       PRES   REMARKS
FARMINGTON     MOCLDY    33  18  53 E8        29.84F WCI  26
LOS ALAMOS     CLOUDY    33  20  59 S6        29.90F WCI  27
SANTA FE       CLOUDY    26  18  71 E3        29.90F
TAOS           CLOUDY    28  10  47 CALM      29.89F
ANGEL FIRE     LGT SNOW  25  18  74 W21G33    29.83F WCI  11

$$
NMZ402-403-502-505>509-271100-
WESTCENTRAL MOUNTAINS/SOUTHWEST MOUNTAINS

CITY           SKY/WX    TMP DP  RH WIND       PRES   REMARKS
GALLUP         CLOUDY    34  23  64 SW17G24   29.88F WCI  23
GRANTS         MOCLDY    28  21  76 S10       29.93F WCI  18
SILVER CITY    FAIR      32  24  71 NW8       29.97F WCI  25

$$
NMZ407-409-411-412-271100-
SOUTHERN DESERTS

CITY           SKY/WX    TMP DP  RH WIND       PRES   REMARKS
DEMING         FAIR      34  25  69 W5        29.96F WCI  30
LAS CRUCES     FAIR      36  19  51 SW7       29.97S WCI  30
HOLLOMAN AFB   FAIR      44  19  36 SE8       29.98S
ALAMOGORDO     FAIR      39  19  45 SE7       29.96S WCI  34
T OR C         FAIR      38  24  57 NW5       29.91F WCI  34

$$
NMZ519>523-271100-
CENTRAL VALLEYS/CENTRAL HIGHLANDS

CITY           SKY/WX    TMP DP  RH WIND       PRES   REMARKS
ALBUQUERQUE    FAIR      31  23  72 S3        29.94R
DOUBLE EAGLE   MOCLDY    24  19  81 SW7       29.94S WCI  16
MORIARTY ARPT  FAIR      30  22  70 S3        29.92S
CLINES CORNERS FAIR      28  19  69 W24       29.87F WCI  14
BELEN          FAIR      26  21  82 CALM      29.93S
SOCORRO        FAIR      34  24  67 CALM      29.93S

$$
NMZ524>526-539-540-271100-
SOUTHCENTRAL MOUNTAINS

CITY           SKY/WX    TMP DP  RH WIND       PRES   REMARKS
RUIDOSO        FAIR      37  18  44 W20G28    29.91F WCI  27

$$
NMZ527>531-271100-
NORTHEAST HIGHLANDS/NORTHEAST PLAINS

CITY           SKY/WX    TMP DP  RH WIND       PRES   REMARKS
LAS VEGAS      FAIR      33  16  49 SW21G28   29.80F WCI  21
RATON          FAIR      21   5  50 SW7       29.77F WCI  12
CLAYTON        FAIR      30  15  53 W10       29.79F WCI  21

$$
NMZ532>537-271100-
EASTCENTRAL PLAINS

CITY           SKY/WX    TMP DP  RH WIND       PRES   REMARKS
TUCUMCARI      FAIR      34  22  61 SW13      29.85R WCI  25
CANNON AFB     CLEAR     33  23  65 W7        29.90R WCI  27
CLOVIS AIRPORT FAIR      30  19  64 W8        29.90S WCI  23

$$
NMZ028-029-538-271100-
SOUTHEAST PLAINS

CITY           SKY/WX    TMP DP  RH WIND       PRES   REMARKS
ROSWELL        FAIR      35  23  61 NW6         N/A  WCI  30
ARTESIA        FAIR      36  25  64 W9        29.91F WCI  29
CARLSBAD       FAIR      44  23  43 S3        29.90S
HOBBS          FAIR      37  18  44 CALM      29.93R


$$



USA.gov is the U.S. government's official web portal to all federal, state and local government web resources and services.